TimeEDT,TemperatureF,Dew PointF,Humidity,Sea Level PressureIn,VisibilityMPH,Wind Direction,Wind SpeedMPH,Gust SpeedMPH,PrecipitationIn,Events,Conditions,WindDirDegrees,DateUTC
12:53 AM,59.0,52.0,78,30.05,10.0,ENE,10.4,-,N/A,,Overcast,60,2013-05-04 04:53:00
1:53 AM,59.0,48.0,67,30.05,10.0,East,12.7,-,N/A,,Overcast,80,2013-05-04 05:53:00
2:53 AM,57.0,45.0,64,30.04,10.0,ENE,16.1,26.5,N/A,,Overcast,70,2013-05-04 06:53:00
3:53 AM,54.0,41.0,62,30.04,10.0,ENE,13.8,-,N/A,,Overcast,60,2013-05-04 07:53:00
4:53 AM,53.1,41.0,64,30.04,10.0,NE,11.5,-,N/A,,Overcast,50,2013-05-04 08:53:00
5:01 AM,53.6,41.0,62,30.05,10.0,NE,10.4,-,N/A,,Overcast,40,2013-05-04 09:01:00
5:53 AM,52.0,42.1,69,30.04,10.0,NE,13.8,19.6,N/A,,Overcast,50,2013-05-04 09:53:00
6:23 AM,51.8,44.6,76,30.06,10.0,NE,17.3,26.5,N/A,,Overcast,50,2013-05-04 10:23:00
6:32 AM,51.8,42.8,71,30.06,10.0,NE,18.4,24.2,N/A,,Overcast,40,2013-05-04 10:32:00
6:53 AM,51.1,43.0,74,30.05,10.0,NE,15.0,-,N/A,,Overcast,40,2013-05-04 10:53:00
7:53 AM,50.0,43.0,77,30.06,10.0,NE,15.0,27.6,N/A,,Overcast,40,2013-05-04 11:53:00
8:53 AM,51.1,44.1,77,30.06,10.0,ENE,17.3,23.0,N/A,,Overcast,60,2013-05-04 12:53:00
9:53 AM,52.0,45.0,77,30.05,10.0,NE,17.3,24.2,N/A,,Overcast,50,2013-05-04 13:53:00
10:53 AM,53.1,46.0,77,30.05,10.0,ENE,18.4,24.2,N/A,,Overcast,70,2013-05-04 14:53:00
11:53 AM,54.0,46.9,77,30.04,10.0,ENE,16.1,24.2,N/A,,Overcast,60,2013-05-04 15:53:00
12:53 PM,55.0,48.0,77,30.02,10.0,NE,12.7,23.0,N/A,,Overcast,50,2013-05-04 16:53:00
1:53 PM,54.0,48.0,80,30.02,10.0,NE,13.8,20.7,N/A,,Overcast,50,2013-05-04 17:53:00
2:22 PM,53.6,48.2,82,30.02,10.0,NE,10.4,-,N/A,,Overcast,50,2013-05-04 18:22:00
2:53 PM,54.0,48.9,83,30.00,10.0,NE,13.8,-,0.00,,Overcast,50,2013-05-04 18:53:00
3:53 PM,54.0,48.9,83,29.99,10.0,NE,8.1,-,N/A,,Overcast,50,2013-05-04 19:53:00
4:50 PM,53.6,51.8,94,29.98,10.0,NNE,8.1,-,0.01,Rain,Light Rain,30,2013-05-04 20:50:00
4:53 PM,54.0,51.1,90,29.97,10.0,NNE,8.1,-,0.01,Rain,Light Rain,30,2013-05-04 20:53:00
5:53 PM,55.0,52.0,89,29.95,8.0,NE,12.7,-,0.03,Rain,Rain,50,2013-05-04 21:53:00
6:53 PM,54.0,52.0,93,29.95,10.0,NE,11.5,-,0.02,Rain,Light Rain,50,2013-05-04 22:53:00
7:26 PM,53.6,51.8,94,29.95,9.0,NE,13.8,21.9,0.02,Rain,Light Rain,50,2013-05-04 23:26:00
7:53 PM,54.0,52.0,93,29.94,10.0,NE,10.4,-,0.02,Rain,Light Rain,40,2013-05-04 23:53:00
8:53 PM,54.0,52.0,93,29.94,10.0,NNE,8.1,-,0.03,Rain,Light Rain,30,2013-05-05 00:53:00
9:53 PM,54.0,52.0,93,29.99,4.0,NNE,5.8,-,0.11,Rain,Heavy Rain,20,2013-05-05 01:53:00
10:20 PM,53.6,51.8,94,29.98,4.0,NNE,11.5,-,0.12,Rain,Heavy Rain,20,2013-05-05 02:20:00
10:53 PM,53.1,52.0,96,29.97,4.0,NE,11.5,-,0.22,Rain,Heavy Rain,40,2013-05-05 02:53:00
11:13 PM,53.6,51.8,94,29.98,5.0,NNE,9.2,-,0.11,Rain,Rain,30,2013-05-05 03:13:00
11:53 PM,53.1,52.0,96,29.96,10.0,NE,11.5,-,0.18,Rain,Light Rain,40,2013-05-05 03:53:00